TimeCST,TemperatureF,Dew PointF,Humidity,Sea Level PressureIn,VisibilityMPH,Wind Direction,Wind SpeedMPH,Gust SpeedMPH,PrecipitationIn,Events,Conditions,WindDirDegrees,DateUTC
12:00 AM,-10,-17,59,30.22,9,Calm,Calm,,,,Overcast,,2012-12-10 06:00:00
12:00 AM,-9.4,-16.6,71,30.22,15.0,SSE,8.1,-,N/A,,Mostly Cloudy,150,2012-12-10 06:00:00
1:00 AM,-9.4,-16.6,71,30.19,15.0,South,8.1,-,N/A,,Clear,170,2012-12-10 07:00:00
2:00 AM,-11.2,-18.4,70,30.16,15.0,South,12.7,-,N/A,,Clear,170,2012-12-10 08:00:00
2:52 AM,-11.2,-9999,N/A,-9999,15.0,South,12.7,-,N/A,Snow,Light Snow,170,2012-12-10 08:52:00
3:00 AM,-9.4,-18.4,65,30.12,15.0,South,12.7,-,N/A,Snow,Light Snow,170,2012-12-10 09:00:00
4:00 AM,-7.6,-16.6,65,30.07,15.0,South,15.0,-,N/A,Snow,Light Snow,170,2012-12-10 10:00:00
5:00 AM,-9.4,-16.6,71,30.04,15.0,South,17.3,-,N/A,,Scattered Clouds,170,2012-12-10 11:00:00
6:00 AM,-8,-16,55,30.01,9,Calm,Calm,,,,,,2012-12-10 12:00:00
6:00 AM,-7.6,-14.8,71,30.01,15.0,South,16.1,-,N/A,,Partly Cloudy,170,2012-12-10 12:00:00
7:00 AM,-5.8,-13.0,71,29.98,15.0,South,18.4,-,N/A,,Partly Cloudy,170,2012-12-10 13:00:00
8:00 AM,-4.0,-11.2,71,29.94,15.0,SSE,18.4,-,N/A,,Partly Cloudy,160,2012-12-10 14:00:00
9:00 AM,-4.0,-11.2,71,29.92,15.0,South,21.9,27.6,N/A,Snow,Low Drifting Snow,170,2012-12-10 15:00:00
10:00 AM,-0.4,-5.8,78,29.90,15.0,South,20.7,29.9,N/A,Snow,Low Drifting Snow,170,2012-12-10 16:00:00
11:00 AM,3.2,-2.2,78,29.88,15.0,South,26.5,33.4,N/A,Snow,Low Drifting Snow,170,2012-12-10 17:00:00
12:00 PM,6,-0,64,29.84,9,Calm,Calm,,,,,,2012-12-10 18:00:00
12:00 PM,5.0,-0.4,78,29.84,15.0,South,21.9,-,N/A,Snow,Low Drifting Snow,180,2012-12-10 18:00:00
1:00 PM,6.8,1.4,79,29.81,15.0,South,23.0,34.5,N/A,Snow,Low Drifting Snow,180,2012-12-10 19:00:00
2:00 PM,8.6,1.4,73,29.80,15.0,South,20.7,27.6,N/A,Snow,Low Drifting Snow,170,2012-12-10 20:00:00
3:00 PM,8.6,1.4,73,29.79,15.0,South,18.4,-,N/A,Snow,Low Drifting Snow,180,2012-12-10 21:00:00
3:45 PM,8.6,-9999,N/A,-9999,4.0,South,18.4,24.2,N/A,Snow,Light Snow,180,2012-12-10 21:45:00
4:00 PM,8.6,3.2,79,29.78,3.0,South,15.0,23.0,N/A,Snow,Light Snow,180,2012-12-10 22:00:00
4:30 PM,8.6,-9999,N/A,-9999,2.0,South,13.8,-,N/A,Snow,Light Snow,180,2012-12-10 22:30:00
5:00 PM,8.6,6.8,92,29.78,3.0,South,17.3,-,N/A,Snow,Light Snow,180,2012-12-10 23:00:00
6:00 PM,10,8,87,29.76,7,Calm,Calm,,,,Unknown Precipitation,,2012-12-11 00:00:00
6:00 PM,10.4,8.6,92,29.77,6.0,South,15.0,-,N/A,Snow,Light Snow,190,2012-12-11 00:00:00
7:00 PM,10.4,8.6,92,29.76,3.0,South,13.8,-,N/A,Snow,Light Snow,190,2012-12-11 01:00:00
7:48 PM,10.4,-9999,N/A,-9999,2.0,SSW,10.4,-,N/A,Snow,Light Snow,200,2012-12-11 01:48:00
8:00 PM,10.4,8.6,92,29.77,2.0,SSW,9.2,-,N/A,Snow,Light Snow,200,2012-12-11 02:00:00
9:00 PM,10.4,8.6,92,29.75,2.0,West,9.2,-,N/A,Snow,Light Snow,260,2012-12-11 03:00:00
9:24 PM,6.8,-9999,N/A,-9999,15.0,WNW,11.5,-,N/A,,Mostly Cloudy,290,2012-12-11 03:24:00
10:00 PM,5.0,3.2,92,29.76,15.0,WNW,9.2,-,N/A,,Mostly Cloudy,290,2012-12-11 04:00:00
11:00 PM,6.8,5.0,92,29.77,15.0,NW,15.0,-,N/A,,Mostly Cloudy,320,2012-12-11 05:00:00